Back to catalog

APSTAR 6E

AliveCommunicationsGEO
NORAD 55239·PAYLOAD·🇨🇳 China

Launched Jan 12, 2023 from Xichang Satellite Launch Center

Loading…

TLE

FreshSource: Space-Track

Epoch: Sep 14, 2026, 12:43 UTC

1 55239U 23005A   26257.53041538 -.00000325  00000-0  00000-0 0  9996
2 55239   0.0468 247.8877 0003750 318.4071 112.1878  1.00272185 19594

Track APSTAR 6E in real time with AllMySat

Download on the App Store